Time,TemperatureF,DewpointF,PressureIn,WindDirection,WindDirectionDegrees,WindSpeedMPH,WindSpeedGustMPH,Humidity,HourlyPrecipIn,Conditions,Clouds,dailyrainin,SolarRadiationWatts/m^2,SoftwareType,DateUTC
2013-04-21 00:03:00,29.0,21.4,30.47,NE,41,0.0,1.0,73,0.00,,,0.00,0,HR-IXP-WINDi_r2_v1.2,2013-04-21 05:03:00,
2013-04-21 00:08:00,28.9,21.3,30.47,NE,41,0.0,1.0,73,0.00,,,0.00,0,HR-IXP-WINDi_r2_v1.2,2013-04-21 05:08:00,
2013-04-21 00:13:00,28.9,21.3,30.47,NE,41,0.0,1.0,73,0.00,,,0.00,0,HR-IXP-WINDi_r2_v1.2,2013-04-21 05:13:00,
2013-04-21 00:19:00,28.9,21.7,30.47,NE,41,0.0,1.0,74,0.00,,,0.00,0,HR-IXP-WINDi_r2_v1.2,2013-04-21 05:19:00,
2013-04-21 00:24:00,28.8,21.9,30.47,NE,41,0.0,0.0,75,0.00,,,0.00,0,HR-IXP-WINDi_r2_v1.2,2013-04-21 05:24:00,
2013-04-21 00:29:00,28.7,21.8,30.47,NE,41,0.0,2.0,75,0.00,,,0.00,0,HR-IXP-WINDi_r2_v1.2,2013-04-21 05:29:00,
2013-04-21 00:34:00,28.6,21.7,30.47,NE,41,0.0,2.0,75,0.00,,,0.00,0,HR-IXP-WINDi_r2_v1.2,2013-04-21 05:34:00,
2013-04-21 00:39:00,28.6,21.4,30.47,NE,41,0.0,1.0,74,0.00,,,0.00,0,HR-IXP-WINDi_r2_v1.2,2013-04-21 05:39:00,
2013-04-21 00:44:00,28.5,21.3,30.47,NE,41,0.0,0.0,74,0.00,,,0.00,0,HR-IXP-WINDi_r2_v1.2,2013-04-21 05:44:00,
2013-04-21 00:50:00,28.5,21.3,30.47,NE,41,0.0,2.0,74,0.00,,,0.00,0,HR-IXP-WINDi_r2_v1.2,2013-04-21 05:50:00,
2013-04-21 00:55:00,28.5,21.3,30.47,NE,41,0.0,2.0,74,0.00,,,0.00,0,HR-IXP-WINDi_r2_v1.2,2013-04-21 05:55:00,
2013-04-21 01:00:00,28.5,21.3,30.47,NE,41,0.0,2.0,74,0.00,,,0.00,0,HR-IXP-WINDi_r2_v1.2,2013-04-21 06:00:00,
2013-04-21 01:05:00,28.6,21.1,30.47,NE,41,0.0,3.0,73,0.00,,,0.00,0,HR-IXP-WINDi_r2_v1.2,2013-04-21 06:05:00,
2013-04-21 01:11:00,28.5,21.0,30.47,NE,41,0.0,3.0,73,0.00,,,0.00,0,HR-IXP-WINDi_r2_v1.2,2013-04-21 06:11:00,
2013-04-21 01:16:00,28.6,21.1,30.47,NE,41,0.0,2.0,73,0.00,,,0.00,0,HR-IXP-WINDi_r2_v1.2,2013-04-21 06:16:00,
2013-04-21 01:21:00,28.6,21.1,30.47,NE,41,0.0,2.0,73,0.00,,,0.00,0,HR-IXP-WINDi_r2_v1.2,2013-04-21 06:21:00,
2013-04-21 01:26:00,28.7,21.1,30.47,NE,41,0.0,1.0,73,0.00,,,0.00,0,HR-IXP-WINDi_r2_v1.2,2013-04-21 06:26:00,
2013-04-21 01:32:00,28.7,21.1,30.47,NE,41,0.0,1.0,73,0.00,,,0.00,0,HR-IXP-WINDi_r2_v1.2,2013-04-21 06:32:00,
2013-04-21 01:37:00,28.7,21.5,30.47,NE,41,0.0,2.0,74,0.00,,,0.00,0,HR-IXP-WINDi_r2_v1.2,2013-04-21 06:37:00,
2013-04-21 01:42:00,28.7,21.1,30.47,NE,41,0.0,3.0,73,0.00,,,0.00,0,HR-IXP-WINDi_r2_v1.2,2013-04-21 06:42:00,
2013-04-21 01:47:00,28.7,21.1,30.47,NE,41,0.0,3.0,73,0.00,,,0.00,0,HR-IXP-WINDi_r2_v1.2,2013-04-21 06:47:00,
2013-04-21 01:52:00,28.6,21.1,30.47,NE,41,0.0,1.0,73,0.00,,,0.00,0,HR-IXP-WINDi_r2_v1.2,2013-04-21 06:52:00,
2013-04-21 01:58:00,28.6,21.1,30.47,NE,41,0.0,3.0,73,0.00,,,0.00,0,HR-IXP-WINDi_r2_v1.2,2013-04-21 06:58:00,
2013-04-21 02:03:00,28.5,21.0,30.47,NE,41,0.0,3.0,73,0.00,,,0.00,0,HR-IXP-WINDi_r2_v1.2,2013-04-21 07:03:00,
2013-04-21 02:08:00,28.6,21.1,30.47,NE,41,0.0,2.0,73,0.00,,,0.00,0,HR-IXP-WINDi_r2_v1.2,2013-04-21 07:08:00,
2013-04-21 02:13:00,28.6,21.1,30.47,NE,41,0.0,2.0,73,0.00,,,0.00,0,HR-IXP-WINDi_r2_v1.2,2013-04-21 07:13:00,
2013-04-21 02:19:00,28.6,21.1,30.47,NE,41,0.0,2.0,73,0.00,,,0.00,0,HR-IXP-WINDi_r2_v1.2,2013-04-21 07:19:00,
2013-04-21 02:24:00,28.5,21.0,30.48,NE,41,0.0,1.0,73,0.00,,,0.00,0,HR-IXP-WINDi_r2_v1.2,2013-04-21 07:24:00,
2013-04-21 02:29:00,28.5,21.0,30.48,NE,41,0.0,0.0,73,0.00,,,0.00,0,HR-IXP-WINDi_r2_v1.2,2013-04-21 07:29:00,
2013-04-21 02:34:00,28.4,20.9,30.48,NE,41,0.0,0.0,73,0.00,,,0.00,0,HR-IXP-WINDi_r2_v1.2,2013-04-21 07:34:00,
2013-04-21 02:39:00,28.3,20.8,30.48,NE,41,0.0,0.0,73,0.00,,,0.00,0,HR-IXP-WINDi_r2_v1.2,2013-04-21 07:39:00,
2013-04-21 02:44:00,28.2,21.0,30.48,NE,41,0.0,0.0,74,0.00,,,0.00,0,HR-IXP-WINDi_r2_v1.2,2013-04-21 07:44:00,
2013-04-21 02:50:00,28.1,20.9,30.48,NE,41,0.0,0.0,74,0.00,,,0.00,0,HR-IXP-WINDi_r2_v1.2,2013-04-21 07:50:00,
2013-04-21 02:55:00,27.9,21.0,30.48,NE,41,0.0,0.0,75,0.00,,,0.00,0,HR-IXP-WINDi_r2_v1.2,2013-04-21 07:55:00,
2013-04-21 03:00:00,27.8,21.2,30.48,NE,41,0.0,2.0,76,0.00,,,0.00,0,HR-IXP-WINDi_r2_v1.2,2013-04-21 08:00:00,
2013-04-21 03:05:00,27.6,21.0,30.48,NE,41,0.0,2.0,76,0.00,,,0.00,0,HR-IXP-WINDi_r2_v1.2,2013-04-21 08:05:00,
2013-04-21 03:10:00,27.5,21.2,30.48,NE,41,0.0,1.0,77,0.00,,,0.00,0,HR-IXP-WINDi_r2_v1.2,2013-04-21 08:10:00,
2013-04-21 03:15:00,27.4,20.8,30.49,NE,41,0.0,2.0,76,0.00,,,0.00,0,HR-IXP-WINDi_r2_v1.2,2013-04-21 08:15:00,
2013-04-21 03:21:00,27.3,20.7,30.49,NE,41,0.0,2.0,76,0.00,,,0.00,0,HR-IXP-WINDi_r2_v1.2,2013-04-21 08:21:00,
2013-04-21 03:26:00,27.3,20.7,30.49,NE,41,0.0,1.0,76,0.00,,,0.00,0,HR-IXP-WINDi_r2_v1.2,2013-04-21 08:26:00,
2013-04-21 03:31:00,27.3,20.7,30.49,NE,41,0.0,1.0,76,0.00,,,0.00,0,HR-IXP-WINDi_r2_v1.2,2013-04-21 08:31:00,
2013-04-21 03:36:00,27.4,20.8,30.49,NE,41,0.0,1.0,76,0.00,,,0.00,0,HR-IXP-WINDi_r2_v1.2,2013-04-21 08:36:00,
2013-04-21 03:42:00,27.4,20.8,30.49,NE,41,0.0,1.0,76,0.00,,,0.00,0,HR-IXP-WINDi_r2_v1.2,2013-04-21 08:42:00,
2013-04-21 03:47:00,27.4,20.8,30.50,NE,41,0.0,1.0,76,0.00,,,0.00,0,HR-IXP-WINDi_r2_v1.2,2013-04-21 08:47:00,
2013-04-21 03:52:00,27.4,20.8,30.50,NE,41,0.0,0.0,76,0.00,,,0.00,0,HR-IXP-WINDi_r2_v1.2,2013-04-21 08:52:00,
2013-04-21 03:57:00,27.4,20.5,30.50,NE,41,0.0,0.0,75,0.00,,,0.00,0,HR-IXP-WINDi_r2_v1.2,2013-04-21 08:57:00,
2013-04-21 04:02:00,27.4,20.5,30.50,NE,41,0.0,0.0,75,0.00,,,0.00,0,HR-IXP-WINDi_r2_v1.2,2013-04-21 09:02:00,
2013-04-21 04:07:00,27.3,20.4,30.51,NE,41,0.0,1.0,75,0.00,,,0.00,0,HR-IXP-WINDi_r2_v1.2,2013-04-21 09:07:00,
2013-04-21 04:13:00,27.2,20.3,30.51,NE,41,0.0,3.0,75,0.00,,,0.00,0,HR-IXP-WINDi_r2_v1.2,2013-04-21 09:13:00,
2013-04-21 04:18:00,27.1,20.6,30.51,NE,41,0.0,3.0,76,0.00,,,0.00,0,HR-IXP-WINDi_r2_v1.2,2013-04-21 09:18:00,
2013-04-21 04:23:00,27.0,20.5,30.51,NE,41,0.0,2.0,76,0.00,,,0.00,0,HR-IXP-WINDi_r2_v1.2,2013-04-21 09:23:00,
2013-04-21 04:28:00,27.0,20.5,30.51,NE,41,0.0,3.0,76,0.00,,,0.00,0,HR-IXP-WINDi_r2_v1.2,2013-04-21 09:28:00,
2013-04-21 04:33:00,26.9,20.4,30.51,NE,41,0.0,3.0,76,0.00,,,0.00,0,HR-IXP-WINDi_r2_v1.2,2013-04-21 09:33:00,
2013-04-21 04:38:00,26.9,20.4,30.51,NE,41,0.0,1.0,76,0.00,,,0.00,0,HR-IXP-WINDi_r2_v1.2,2013-04-21 09:38:00,
2013-04-21 04:43:00,26.8,20.3,30.52,NE,41,0.0,1.0,76,0.00,,,0.00,0,HR-IXP-WINDi_r2_v1.2,2013-04-21 09:43:00,
2013-04-21 04:48:00,26.8,20.6,30.52,NE,41,0.0,0.0,77,0.00,,,0.00,0,HR-IXP-WINDi_r2_v1.2,2013-04-21 09:48:00,
2013-04-21 04:54:00,26.7,20.5,30.52,NE,41,0.0,1.0,77,0.00,,,0.00,0,HR-IXP-WINDi_r2_v1.2,2013-04-21 09:54:00,
2013-04-21 04:59:00,26.6,20.4,30.52,NE,41,0.0,1.0,77,0.00,,,0.00,0,HR-IXP-WINDi_r2_v1.2,2013-04-21 09:59:00,
2013-04-21 05:04:00,26.6,20.4,30.52,NE,41,0.0,0.0,77,0.00,,,0.00,0,HR-IXP-WINDi_r2_v1.2,2013-04-21 10:04:00,
2013-04-21 05:09:00,26.5,20.6,30.52,NE,41,0.0,1.0,78,0.00,,,0.00,0,HR-IXP-WINDi_r2_v1.2,2013-04-21 10:09:00,
2013-04-21 05:14:00,26.5,20.6,30.52,NE,41,0.0,1.0,78,0.00,,,0.00,0,HR-IXP-WINDi_r2_v1.2,2013-04-21 10:14:00,
2013-04-21 05:19:00,26.4,20.8,30.52,NE,41,0.0,1.0,79,0.00,,,0.00,0,HR-IXP-WINDi_r2_v1.2,2013-04-21 10:19:00,
2013-04-21 05:25:00,26.4,20.8,30.53,NE,41,0.0,2.0,79,0.00,,,0.00,0,HR-IXP-WINDi_r2_v1.2,2013-04-21 10:25:00,
2013-04-21 05:30:00,26.4,20.5,30.53,NE,41,0.0,3.0,78,0.00,,,0.00,0,HR-IXP-WINDi_r2_v1.2,2013-04-21 10:30:00,
2013-04-21 05:35:00,26.4,20.5,30.53,NE,41,0.0,3.0,78,0.00,,,0.00,0,HR-IXP-WINDi_r2_v1.2,2013-04-21 10:35:00,
2013-04-21 05:40:00,26.4,20.5,30.53,NE,41,1.0,1.0,78,0.00,,,0.00,0,HR-IXP-WINDi_r2_v1.2,2013-04-21 10:40:00,
2013-04-21 05:45:00,26.4,20.5,30.54,NE,41,0.0,2.0,78,0.00,,,0.00,0,HR-IXP-WINDi_r2_v1.2,2013-04-21 10:45:00,
2013-04-21 05:51:00,26.5,20.6,30.54,NE,41,0.0,2.0,78,0.00,,,0.00,0,HR-IXP-WINDi_r2_v1.2,2013-04-21 10:51:00,
2013-04-21 05:56:00,26.5,20.6,30.54,NE,41,0.0,1.0,78,0.00,,,0.00,0,HR-IXP-WINDi_r2_v1.2,2013-04-21 10:56:00,
2013-04-21 06:01:00,26.5,20.6,30.54,NE,41,0.0,1.0,78,0.00,,,0.00,5,HR-IXP-WINDi_r2_v1.2,2013-04-21 11:01:00,
2013-04-21 06:06:00,26.5,20.6,30.54,NE,41,1.0,1.0,78,0.00,,,0.00,9,HR-IXP-WINDi_r2_v1.2,2013-04-21 11:06:00,
2013-04-21 06:11:00,26.5,20.6,30.54,NE,41,0.0,1.0,78,0.00,,,0.00,12,HR-IXP-WINDi_r2_v1.2,2013-04-21 11:11:00,
2013-04-21 06:17:00,26.6,21.0,30.54,NE,41,0.0,2.0,79,0.00,,,0.00,18,HR-IXP-WINDi_r2_v1.2,2013-04-21 11:17:00,
2013-04-21 06:22:00,26.7,21.1,30.55,NE,41,0.0,2.0,79,0.00,,,0.00,21,HR-IXP-WINDi_r2_v1.2,2013-04-21 11:22:00,
2013-04-21 06:27:00,26.9,21.0,30.55,NE,41,0.0,2.0,78,0.00,,,0.00,26,HR-IXP-WINDi_r2_v1.2,2013-04-21 11:27:00,
2013-04-21 06:32:00,27.0,21.4,30.55,NE,41,0.0,1.0,79,0.00,,,0.00,28,HR-IXP-WINDi_r2_v1.2,2013-04-21 11:32:00,
2013-04-21 06:38:00,27.2,21.6,30.55,NE,41,0.0,1.0,79,0.00,,,0.00,33,HR-IXP-WINDi_r2_v1.2,2013-04-21 11:38:00,
2013-04-21 06:43:00,27.4,21.8,30.55,NE,41,0.0,2.0,79,0.00,,,0.00,40,HR-IXP-WINDi_r2_v1.2,2013-04-21 11:43:00,
2013-04-21 06:48:00,27.6,21.9,30.55,NE,41,0.0,2.0,79,0.00,,,0.00,44,HR-IXP-WINDi_r2_v1.2,2013-04-21 11:48:00,
2013-04-21 06:53:00,28.0,22.3,30.56,East,88,0.0,3.0,79,0.00,,,0.00,47,HR-IXP-WINDi_r2_v1.2,2013-04-21 11:53:00,
2013-04-21 06:58:00,28.4,22.4,30.56,NE,53,1.0,5.0,78,0.00,,,0.00,49,HR-IXP-WINDi_r2_v1.2,2013-04-21 11:58:00,
2013-04-21 07:03:00,28.9,22.6,30.56,NE,53,0.0,5.0,77,0.00,,,0.00,54,HR-IXP-WINDi_r2_v1.2,2013-04-21 12:03:00,
2013-04-21 07:08:00,29.3,22.7,30.56,NE,51,1.0,4.0,76,0.00,,,0.00,62,HR-IXP-WINDi_r2_v1.2,2013-04-21 12:08:00,
2013-04-21 07:13:00,29.7,23.1,30.56,NE,51,0.0,4.0,76,0.00,,,0.00,76,HR-IXP-WINDi_r2_v1.2,2013-04-21 12:13:00,
2013-04-21 07:18:00,30.1,23.4,30.56,ESE,121,0.0,7.0,76,0.00,,,0.00,90,HR-IXP-WINDi_r2_v1.2,2013-04-21 12:18:00,
2013-04-21 07:24:00,30.7,23.7,30.57,SE,137,1.0,7.0,75,0.00,,,0.00,102,HR-IXP-WINDi_r2_v1.2,2013-04-21 12:24:00,
2013-04-21 07:29:00,31.1,23.5,30.57,ESE,123,4.0,11.0,73,0.00,,,0.00,111,HR-IXP-WINDi_r2_v1.2,2013-04-21 12:29:00,
2013-04-21 07:34:00,31.6,23.6,30.57,ESE,106,9.0,11.0,72,0.00,,,0.00,114,HR-IXP-WINDi_r2_v1.2,2013-04-21 12:34:00,
2013-04-21 07:39:00,32.0,25.3,30.57,SE,131,0.0,11.0,76,0.00,,,0.00,111,HR-IXP-WINDi_r2_v1.2,2013-04-21 12:39:00,
2013-04-21 07:44:00,32.4,24.0,30.57,SE,126,4.0,11.0,71,0.00,,,0.00,116,HR-IXP-WINDi_r2_v1.2,2013-04-21 12:44:00,
2013-04-21 07:50:00,32.6,23.9,30.57,SE,142,0.0,11.0,70,0.00,,,0.00,125,HR-IXP-WINDi_r2_v1.2,2013-04-21 12:50:00,
2013-04-21 07:55:00,32.9,24.2,30.57,East,97,8.0,13.0,70,0.00,,,0.00,132,HR-IXP-WINDi_r2_v1.2,2013-04-21 12:55:00,
2013-04-21 08:00:00,33.2,24.8,30.57,SE,136,7.0,13.0,71,0.00,,,0.00,137,HR-IXP-WINDi_r2_v1.2,2013-04-21 13:00:00,
2013-04-21 08:05:00,33.4,24.7,30.57,ESE,111,2.0,15.0,70,0.00,,,0.00,142,HR-IXP-WINDi_r2_v1.2,2013-04-21 13:05:00,
2013-04-21 08:10:00,33.6,24.5,30.57,East,90,5.0,15.0,69,0.00,,,0.00,146,HR-IXP-WINDi_r2_v1.2,2013-04-21 13:10:00,
2013-04-21 08:16:00,33.9,25.1,30.57,SSE,153,1.0,11.0,70,0.00,,,0.00,155,HR-IXP-WINDi_r2_v1.2,2013-04-21 13:16:00,
2013-04-21 08:21:00,34.3,25.2,30.57,SE,126,2.0,9.0,69,0.00,,,0.00,230,HR-IXP-WINDi_r2_v1.2,2013-04-21 13:21:00,
2013-04-21 08:26:00,34.7,24.9,30.57,SE,128,12.0,13.0,67,0.00,,,0.00,267,HR-IXP-WINDi_r2_v1.2,2013-04-21 13:26:00,
2013-04-21 08:31:00,35.1,24.5,30.57,ESE,117,5.0,14.0,65,0.00,,,0.00,294,HR-IXP-WINDi_r2_v1.2,2013-04-21 13:31:00,
2013-04-21 08:36:00,35.5,24.5,30.56,NE,46,5.0,14.0,64,0.00,,,0.00,359,HR-IXP-WINDi_r2_v1.2,2013-04-21 13:36:00,
2013-04-21 08:41:00,36.0,25.0,30.57,SSE,153,5.0,13.0,64,0.00,,,0.00,410,HR-IXP-WINDi_r2_v1.2,2013-04-21 13:41:00,
2013-04-21 08:46:00,36.5,24.7,30.57,ESE,111,6.0,12.0,62,0.00,,,0.00,422,HR-IXP-WINDi_r2_v1.2,2013-04-21 13:46:00,
2013-04-21 08:52:00,37.0,25.9,30.57,SE,144,2.0,12.0,64,0.00,,,0.00,431,HR-IXP-WINDi_r2_v1.2,2013-04-21 13:52:00,
2013-04-21 08:57:00,37.7,26.2,30.57,ESE,121,4.0,11.0,63,0.00,,,0.00,469,HR-IXP-WINDi_r2_v1.2,2013-04-21 13:57:00,
2013-04-21 09:02:00,38.3,25.6,30.57,SSE,158,6.0,12.0,60,0.00,,,0.00,436,HR-IXP-WINDi_r2_v1.2,2013-04-21 14:02:00,
2013-04-21 09:07:00,38.5,25.0,30.57,SSE,157,6.0,14.0,58,0.00,,,0.00,431,HR-IXP-WINDi_r2_v1.2,2013-04-21 14:07:00,
2013-04-21 09:12:00,38.6,25.1,30.57,ENE,65,7.0,14.0,58,0.00,,,0.00,383,HR-IXP-WINDi_r2_v1.2,2013-04-21 14:12:00,
2013-04-21 09:18:00,38.8,25.7,30.57,ESE,120,5.0,12.0,59,0.00,,,0.00,396,HR-IXP-WINDi_r2_v1.2,2013-04-21 14:18:00,
2013-04-21 09:23:00,39.2,25.7,30.56,East,94,7.0,11.0,58,0.00,,,0.00,471,HR-IXP-WINDi_r2_v1.2,2013-04-21 14:23:00,
2013-04-21 09:28:00,39.5,25.9,30.56,ESE,122,2.0,11.0,58,0.00,,,0.00,443,HR-IXP-WINDi_r2_v1.2,2013-04-21 14:28:00,
2013-04-21 09:33:00,39.8,25.4,30.56,ESE,111,5.0,13.0,56,0.00,,,0.00,522,HR-IXP-WINDi_r2_v1.2,2013-04-21 14:33:00,
2013-04-21 09:39:00,40.4,25.9,30.56,SSE,156,7.0,13.0,56,0.00,,,0.00,589,HR-IXP-WINDi_r2_v1.2,2013-04-21 14:39:00,
2013-04-21 09:44:00,40.7,25.3,30.56,SE,134,7.0,15.0,54,0.00,,,0.00,591,HR-IXP-WINDi_r2_v1.2,2013-04-21 14:44:00,
2013-04-21 09:49:00,40.9,25.1,30.56,East,96,0.0,15.0,53,0.00,,,0.00,598,HR-IXP-WINDi_r2_v1.2,2013-04-21 14:49:00,
2013-04-21 09:54:00,41.6,27.1,30.57,SE,134,11.0,15.0,56,0.00,,,0.00,594,HR-IXP-WINDi_r2_v1.2,2013-04-21 14:54:00,
2013-04-21 09:59:00,41.9,25.1,30.57,SSE,154,1.0,17.0,51,0.00,,,0.00,606,HR-IXP-WINDi_r2_v1.2,2013-04-21 14:59:00,
2013-04-21 10:04:00,41.9,24.6,30.57,SE,126,9.0,17.0,50,0.00,,,0.00,570,HR-IXP-WINDi_r2_v1.2,2013-04-21 15:04:00,
2013-04-21 10:10:00,42.1,24.8,30.57,ESE,107,5.0,15.0,50,0.00,,,0.00,640,HR-IXP-WINDi_r2_v1.2,2013-04-21 15:10:00,
2013-04-21 10:15:00,42.4,26.0,30.57,NE,51,6.0,13.0,52,0.00,,,0.00,700,HR-IXP-WINDi_r2_v1.2,2013-04-21 15:15:00,
2013-04-21 10:20:00,42.7,26.3,30.57,East,86,3.0,13.0,52,0.00,,,0.00,698,HR-IXP-WINDi_r2_v1.2,2013-04-21 15:20:00,
2013-04-21 10:25:00,42.9,25.0,30.57,ESE,120,6.0,13.0,49,0.00,,,0.00,638,HR-IXP-WINDi_r2_v1.2,2013-04-21 15:25:00,
2013-04-21 10:30:00,43.4,26.5,30.57,ESE,109,11.0,13.0,51,0.00,,,0.00,738,HR-IXP-WINDi_r2_v1.2,2013-04-21 15:30:00,
2013-04-21 10:35:00,43.8,25.4,30.57,SE,136,4.0,13.0,48,0.00,,,0.00,355,HR-IXP-WINDi_r2_v1.2,2013-04-21 15:35:00,
2013-04-21 10:41:00,43.8,25.4,30.57,SSE,156,2.0,13.0,48,0.00,,,0.00,793,HR-IXP-WINDi_r2_v1.2,2013-04-21 15:41:00,
2013-04-21 10:46:00,44.5,27.0,30.57,ESE,105,9.0,13.0,50,0.00,,,0.00,666,HR-IXP-WINDi_r2_v1.2,2013-04-21 15:46:00,
2013-04-21 10:51:00,44.9,26.4,30.57,ESE,102,12.0,13.0,48,0.00,,,0.00,816,HR-IXP-WINDi_r2_v1.2,2013-04-21 15:51:00,
2013-04-21 10:56:00,45.3,27.2,30.56,South,173,12.0,13.0,49,0.00,,,0.00,819,HR-IXP-WINDi_r2_v1.2,2013-04-21 15:56:00,
2013-04-21 11:02:00,45.8,26.7,30.56,SSE,150,9.0,13.0,47,0.00,,,0.00,805,HR-IXP-WINDi_r2_v1.2,2013-04-21 16:02:00,
2013-04-21 11:07:00,46.2,26.5,30.56,SE,126,13.0,14.0,46,0.00,,,0.00,840,HR-IXP-WINDi_r2_v1.2,2013-04-21 16:07:00,
2013-04-21 11:12:00,46.5,26.3,30.56,SSE,159,5.0,14.0,45,0.00,,,0.00,872,HR-IXP-WINDi_r2_v1.2,2013-04-21 16:12:00,
2013-04-21 11:17:00,47.0,27.8,30.56,ENE,78,4.0,14.0,47,0.00,,,0.00,824,HR-IXP-WINDi_r2_v1.2,2013-04-21 16:17:00,
2013-04-21 11:23:00,47.2,26.9,30.56,East,81,2.0,16.0,45,0.00,,,0.00,772,HR-IXP-WINDi_r2_v1.2,2013-04-21 16:23:00,
2013-04-21 11:28:00,47.0,25.6,30.56,SE,135,4.0,16.0,43,0.00,,,0.00,701,HR-IXP-WINDi_r2_v1.2,2013-04-21 16:28:00,
2013-04-21 11:33:00,47.1,27.9,30.55,SSW,208,4.0,16.0,47,0.00,,,0.00,759,HR-IXP-WINDi_r2_v1.2,2013-04-21 16:33:00,
2013-04-21 11:38:00,47.2,26.4,30.55,ESE,113,7.0,13.0,44,0.00,,,0.00,872,HR-IXP-WINDi_r2_v1.2,2013-04-21 16:38:00,
2013-04-21 11:43:00,47.7,27.9,30.55,SE,144,4.0,15.0,46,0.00,,,0.00,846,HR-IXP-WINDi_r2_v1.2,2013-04-21 16:43:00,
2013-04-21 11:48:00,48.1,26.1,30.55,SE,126,11.0,15.0,42,0.00,,,0.00,861,HR-IXP-WINDi_r2_v1.2,2013-04-21 16:48:00,
2013-04-21 11:53:00,48.1,28.8,30.55,SE,131,6.0,15.0,47,0.00,,,0.00,882,HR-IXP-WINDi_r2_v1.2,2013-04-21 16:53:00,
2013-04-21 11:58:00,48.6,28.2,30.55,ESE,117,5.0,15.0,45,0.00,,,0.00,868,HR-IXP-WINDi_r2_v1.2,2013-04-21 16:58:00,
2013-04-21 12:04:00,48.9,29.5,30.54,SSE,160,7.0,15.0,47,0.00,,,0.00,884,HR-IXP-WINDi_r2_v1.2,2013-04-21 17:04:00,
2013-04-21 12:09:00,49.6,28.6,30.54,South,184,7.0,15.0,44,0.00,,,0.00,895,HR-IXP-WINDi_r2_v1.2,2013-04-21 17:09:00,
2013-04-21 12:14:00,49.9,28.3,30.54,SE,143,1.0,15.0,43,0.00,,,0.00,895,HR-IXP-WINDi_r2_v1.2,2013-04-21 17:14:00,
2013-04-21 12:19:00,50.0,28.9,30.54,ESE,115,11.0,15.0,44,0.00,,,0.00,900,HR-IXP-WINDi_r2_v1.2,2013-04-21 17:19:00,
2013-04-21 12:25:00,49.9,27.7,30.53,ESE,109,1.0,13.0,42,0.00,,,0.00,898,HR-IXP-WINDi_r2_v1.2,2013-04-21 17:25:00,
2013-04-21 12:30:00,50.1,29.6,30.53,SE,133,6.0,13.0,45,0.00,,,0.00,911,HR-IXP-WINDi_r2_v1.2,2013-04-21 17:30:00,
2013-04-21 12:36:00,50.4,28.7,30.53,East,81,4.0,17.0,43,0.00,,,0.00,904,HR-IXP-WINDi_r2_v1.2,2013-04-21 17:36:00,
2013-04-21 12:41:00,50.8,28.5,30.53,ENE,58,3.0,17.0,42,0.00,,,0.00,900,HR-IXP-WINDi_r2_v1.2,2013-04-21 17:41:00,
2013-04-21 12:46:00,50.8,27.3,30.53,SSE,157,1.0,15.0,40,0.00,,,0.00,902,HR-IXP-WINDi_r2_v1.2,2013-04-21 17:46:00,
2013-04-21 12:51:00,50.6,25.9,30.52,ESE,102,11.0,19.0,38,0.00,,,0.00,900,HR-IXP-WINDi_r2_v1.2,2013-04-21 17:51:00,
2013-04-21 12:56:00,50.6,28.3,30.52,East,101,4.0,19.0,42,0.00,,,0.00,898,HR-IXP-WINDi_r2_v1.2,2013-04-21 17:56:00,
2013-04-21 13:01:00,51.2,30.0,30.52,South,175,9.0,12.0,44,0.00,,,0.00,900,HR-IXP-WINDi_r2_v1.2,2013-04-21 18:01:00,
2013-04-21 13:06:00,51.2,30.6,30.52,South,169,4.0,15.0,45,0.00,,,0.00,905,HR-IXP-WINDi_r2_v1.2,2013-04-21 18:06:00,
2013-04-21 13:12:00,51.3,30.1,30.51,ESE,122,11.0,15.0,44,0.00,,,0.00,886,HR-IXP-WINDi_r2_v1.2,2013-04-21 18:12:00,
2013-04-21 13:17:00,51.7,29.9,30.51,SSE,147,7.0,14.0,43,0.00,,,0.00,896,HR-IXP-WINDi_r2_v1.2,2013-04-21 18:17:00,
2013-04-21 13:22:00,51.4,30.2,30.51,SSE,163,5.0,14.0,44,0.00,,,0.00,786,HR-IXP-WINDi_r2_v1.2,2013-04-21 18:22:00,
2013-04-21 13:27:00,51.3,28.4,30.50,SE,127,4.0,20.0,41,0.00,,,0.00,889,HR-IXP-WINDi_r2_v1.2,2013-04-21 18:27:00,
2013-04-21 13:32:00,51.6,29.2,30.50,SSE,159,11.0,20.0,42,0.00,,,0.00,867,HR-IXP-WINDi_r2_v1.2,2013-04-21 18:32:00,
2013-04-21 13:37:00,51.7,29.9,30.50,SE,145,5.0,16.0,43,0.00,,,0.00,882,HR-IXP-WINDi_r2_v1.2,2013-04-21 18:37:00,
2013-04-21 13:42:00,52.0,30.7,30.50,SE,126,6.0,19.0,44,0.00,,,0.00,877,HR-IXP-WINDi_r2_v1.2,2013-04-21 18:42:00,
2013-04-21 13:47:00,52.1,29.7,30.50,ESE,108,0.0,19.0,42,0.00,,,0.00,798,HR-IXP-WINDi_r2_v1.2,2013-04-21 18:47:00,
2013-04-21 13:53:00,52.7,30.2,30.49,SSE,156,10.0,19.0,42,0.00,,,0.00,673,HR-IXP-WINDi_r2_v1.2,2013-04-21 18:53:00,
2013-04-21 13:58:00,52.5,30.0,30.49,SE,140,11.0,19.0,42,0.00,,,0.00,664,HR-IXP-WINDi_r2_v1.2,2013-04-21 18:58:00,
2013-04-21 14:03:00,52.0,28.4,30.49,SSW,192,7.0,17.0,40,0.00,,,0.00,536,HR-IXP-WINDi_r2_v1.2,2013-04-21 19:03:00,
2013-04-21 14:08:00,51.9,28.9,30.48,SSE,167,4.0,14.0,41,0.00,,,0.00,403,HR-IXP-WINDi_r2_v1.2,2013-04-21 19:08:00,
2013-04-21 14:13:00,52.0,28.4,30.48,SE,124,5.0,15.0,40,0.00,,,0.00,636,HR-IXP-WINDi_r2_v1.2,2013-04-21 19:13:00,
2013-04-21 14:18:00,52.1,28.5,30.48,East,94,7.0,15.0,40,0.00,,,0.00,613,HR-IXP-WINDi_r2_v1.2,2013-04-21 19:18:00,
2013-04-21 14:24:00,52.3,30.4,30.48,SE,136,9.0,14.0,43,0.00,,,0.00,281,HR-IXP-WINDi_r2_v1.2,2013-04-21 19:24:00,
2013-04-21 14:29:00,52.5,28.9,30.47,SSE,166,6.0,17.0,40,0.00,,,0.00,367,HR-IXP-WINDi_r2_v1.2,2013-04-21 19:29:00,
2013-04-21 14:34:00,52.1,30.8,30.47,East,89,2.0,17.0,44,0.00,,,0.00,329,HR-IXP-WINDi_r2_v1.2,2013-04-21 19:34:00,
2013-04-21 14:39:00,52.2,29.8,30.47,SSE,165,7.0,16.0,42,0.00,,,0.00,155,HR-IXP-WINDi_r2_v1.2,2013-04-21 19:39:00,
2013-04-21 14:44:00,52.3,29.3,30.46,SE,124,1.0,13.0,41,0.00,,,0.00,311,HR-IXP-WINDi_r2_v1.2,2013-04-21 19:44:00,
2013-04-21 14:49:00,52.2,30.4,30.46,South,180,5.0,15.0,43,0.00,,,0.00,473,HR-IXP-WINDi_r2_v1.2,2013-04-21 19:49:00,
2013-04-21 14:54:00,52.0,27.8,30.46,SSE,148,9.0,17.0,39,0.00,,,0.00,464,HR-IXP-WINDi_r2_v1.2,2013-04-21 19:54:00,
2013-04-21 15:00:00,52.0,30.2,30.45,ESE,106,7.0,19.0,43,0.00,,,0.00,149,HR-IXP-WINDi_r2_v1.2,2013-04-21 20:00:00,
2013-04-21 15:05:00,52.3,28.7,30.45,ENE,64,10.0,19.0,40,0.00,,,0.00,376,HR-IXP-WINDi_r2_v1.2,2013-04-21 20:05:00,
2013-04-21 15:10:00,52.4,29.4,30.45,ESE,105,9.0,18.0,41,0.00,,,0.00,383,HR-IXP-WINDi_r2_v1.2,2013-04-21 20:10:00,
2013-04-21 15:15:00,52.7,30.2,30.45,SE,144,5.0,13.0,42,0.00,,,0.00,350,HR-IXP-WINDi_r2_v1.2,2013-04-21 20:15:00,
2013-04-21 15:20:00,52.6,29.5,30.44,ESE,120,13.0,16.0,41,0.00,,,0.00,320,HR-IXP-WINDi_r2_v1.2,2013-04-21 20:20:00,
2013-04-21 15:25:00,52.7,29.0,30.44,ESE,111,9.0,16.0,40,0.00,,,0.00,413,HR-IXP-WINDi_r2_v1.2,2013-04-21 20:25:00,
2013-04-21 15:31:00,52.7,29.6,30.44,East,98,9.0,20.0,41,0.00,,,0.00,70,HR-IXP-WINDi_r2_v1.2,2013-04-21 20:31:00,
2013-04-21 15:36:00,52.8,30.3,30.43,SE,130,12.0,20.0,42,0.00,,,0.00,323,HR-IXP-WINDi_r2_v1.2,2013-04-21 20:36:00,
2013-04-21 15:41:00,52.6,29.5,30.43,SSE,152,4.0,18.0,41,0.00,,,0.00,450,HR-IXP-WINDi_r2_v1.2,2013-04-21 20:41:00,
2013-04-21 15:46:00,52.8,30.3,30.43,ENE,58,7.0,18.0,42,0.00,,,0.00,70,HR-IXP-WINDi_r2_v1.2,2013-04-21 20:46:00,
2013-04-21 15:52:00,53.1,30.6,30.43,ESE,113,14.0,16.0,42,0.00,,,0.00,438,HR-IXP-WINDi_r2_v1.2,2013-04-21 20:52:00,
2013-04-21 15:57:00,53.1,30.6,30.42,SE,134,6.0,16.0,42,0.00,,,0.00,446,HR-IXP-WINDi_r2_v1.2,2013-04-21 20:57:00,
2013-04-21 16:02:00,53.1,31.2,30.42,SE,128,0.0,15.0,43,0.00,,,0.00,70,HR-IXP-WINDi_r2_v1.2,2013-04-21 21:02:00,
2013-04-21 16:07:00,53.2,30.1,30.42,SSE,157,6.0,17.0,41,0.00,,,0.00,471,HR-IXP-WINDi_r2_v1.2,2013-04-21 21:07:00,
2013-04-21 16:12:00,53.3,29.6,30.42,ESE,122,7.0,17.0,40,0.00,,,0.00,552,HR-IXP-WINDi_r2_v1.2,2013-04-21 21:12:00,
2013-04-21 16:18:00,53.5,29.1,30.42,SE,130,13.0,18.0,39,0.00,,,0.00,533,HR-IXP-WINDi_r2_v1.2,2013-04-21 21:18:00,
2013-04-21 16:23:00,53.3,29.0,30.42,SSE,152,7.0,18.0,39,0.00,,,0.00,431,HR-IXP-WINDi_r2_v1.2,2013-04-21 21:23:00,
2013-04-21 16:28:00,53.3,29.6,30.42,SE,145,7.0,18.0,40,0.00,,,0.00,524,HR-IXP-WINDi_r2_v1.2,2013-04-21 21:28:00,
2013-04-21 16:33:00,53.5,29.1,30.42,SE,128,6.0,15.0,39,0.00,,,0.00,520,HR-IXP-WINDi_r2_v1.2,2013-04-21 21:33:00,
2013-04-21 16:38:00,53.6,29.8,30.42,SE,134,9.0,18.0,40,0.00,,,0.00,512,HR-IXP-WINDi_r2_v1.2,2013-04-21 21:38:00,
2013-04-21 16:44:00,53.5,29.8,30.41,East,92,8.0,18.0,40,0.00,,,0.00,497,HR-IXP-WINDi_r2_v1.2,2013-04-21 21:44:00,
2013-04-21 16:49:00,53.4,30.9,30.41,SE,125,5.0,19.0,42,0.00,,,0.00,482,HR-IXP-WINDi_r2_v1.2,2013-04-21 21:49:00,
2013-04-21 16:54:00,53.3,29.6,30.41,SE,146,12.0,19.0,40,0.00,,,0.00,466,HR-IXP-WINDi_r2_v1.2,2013-04-21 21:54:00,
2013-04-21 16:59:00,53.2,28.9,30.41,South,176,1.0,15.0,39,0.00,,,0.00,452,HR-IXP-WINDi_r2_v1.2,2013-04-21 21:59:00,
2013-04-21 17:04:00,53.1,30.6,30.41,SE,132,5.0,15.0,42,0.00,,,0.00,424,HR-IXP-WINDi_r2_v1.2,2013-04-21 22:04:00,
2013-04-21 17:09:00,53.5,30.9,30.41,SE,125,2.0,14.0,42,0.00,,,0.00,422,HR-IXP-WINDi_r2_v1.2,2013-04-21 22:09:00,
2013-04-21 17:15:00,53.8,30.0,30.41,SSE,152,5.0,13.0,40,0.00,,,0.00,283,HR-IXP-WINDi_r2_v1.2,2013-04-21 22:15:00,
2013-04-21 17:20:00,53.6,29.8,30.41,SE,131,14.0,18.0,40,0.00,,,0.00,294,HR-IXP-WINDi_r2_v1.2,2013-04-21 22:20:00,
2013-04-21 17:25:00,53.4,27.8,30.40,ESE,117,9.0,18.0,37,0.00,,,0.00,315,HR-IXP-WINDi_r2_v1.2,2013-04-21 22:25:00,
2013-04-21 17:30:00,53.3,29.6,30.40,SE,127,6.0,18.0,40,0.00,,,0.00,295,HR-IXP-WINDi_r2_v1.2,2013-04-21 22:30:00,
2013-04-21 17:36:00,53.2,28.9,30.40,SE,125,14.0,16.0,39,0.00,,,0.00,302,HR-IXP-WINDi_r2_v1.2,2013-04-21 22:36:00,
2013-04-21 17:42:00,53.1,29.4,30.40,ESE,103,6.0,19.0,40,0.00,,,0.00,297,HR-IXP-WINDi_r2_v1.2,2013-04-21 22:42:00,
2013-04-21 17:47:00,52.9,28.6,30.40,SSE,159,7.0,20.0,39,0.00,,,0.00,163,HR-IXP-WINDi_r2_v1.2,2013-04-21 22:47:00,
2013-04-21 17:52:00,52.7,29.6,30.40,SSE,157,9.0,20.0,41,0.00,,,0.00,237,HR-IXP-WINDi_r2_v1.2,2013-04-21 22:52:00,
2013-04-21 17:57:00,52.5,29.5,30.40,SSE,148,7.0,19.0,41,0.00,,,0.00,214,HR-IXP-WINDi_r2_v1.2,2013-04-21 22:57:00,
2013-04-21 18:03:00,52.3,29.3,30.40,SSE,160,7.0,18.0,41,0.00,,,0.00,234,HR-IXP-WINDi_r2_v1.2,2013-04-21 23:03:00,
2013-04-21 18:08:00,52.0,30.2,30.40,ESE,109,5.0,18.0,43,0.00,,,0.00,167,HR-IXP-WINDi_r2_v1.2,2013-04-21 23:08:00,
2013-04-21 18:13:00,51.8,30.0,30.40,ESE,119,2.0,13.0,43,0.00,,,0.00,109,HR-IXP-WINDi_r2_v1.2,2013-04-21 23:13:00,
2013-04-21 18:18:00,51.7,29.3,30.40,ESE,123,13.0,17.0,42,0.00,,,0.00,139,HR-IXP-WINDi_r2_v1.2,2013-04-21 23:18:00,
2013-04-21 18:23:00,51.4,29.6,30.40,ESE,115,4.0,17.0,43,0.00,,,0.00,139,HR-IXP-WINDi_r2_v1.2,2013-04-21 23:23:00,
2013-04-21 18:28:00,51.2,29.4,30.40,SE,146,12.0,16.0,43,0.00,,,0.00,127,HR-IXP-WINDi_r2_v1.2,2013-04-21 23:28:00,
2013-04-21 18:33:00,51.0,30.4,30.40,SE,137,9.0,16.0,45,0.00,,,0.00,93,HR-IXP-WINDi_r2_v1.2,2013-04-21 23:33:00,
2013-04-21 18:38:00,50.8,30.2,30.40,SSW,205,4.0,16.0,45,0.00,,,0.00,120,HR-IXP-WINDi_r2_v1.2,2013-04-21 23:38:00,
2013-04-21 18:44:00,50.5,29.9,30.40,ESE,118,11.0,15.0,45,0.00,,,0.00,84,HR-IXP-WINDi_r2_v1.2,2013-04-21 23:44:00,
2013-04-21 18:49:00,50.2,29.7,30.40,South,171,2.0,15.0,45,0.00,,,0.00,83,HR-IXP-WINDi_r2_v1.2,2013-04-21 23:49:00,
2013-04-21 18:54:00,49.9,28.8,30.40,ESE,122,9.0,15.0,44,0.00,,,0.00,56,HR-IXP-WINDi_r2_v1.2,2013-04-21 23:54:00,
2013-04-21 18:59:00,49.7,29.7,30.40,SSE,158,7.0,15.0,46,0.00,,,0.00,51,HR-IXP-WINDi_r2_v1.2,2013-04-21 23:59:00,
2013-04-21 19:04:00,49.4,30.0,30.40,SE,141,9.0,14.0,47,0.00,,,0.00,32,HR-IXP-WINDi_r2_v1.2,2013-04-22 00:04:00,
2013-04-21 19:10:00,49.0,30.1,30.40,SE,141,6.0,14.0,48,0.00,,,0.00,19,HR-IXP-WINDi_r2_v1.2,2013-04-22 00:10:00,
2013-04-21 19:15:00,48.6,30.3,30.40,SSE,161,2.0,16.0,49,0.00,,,0.00,14,HR-IXP-WINDi_r2_v1.2,2013-04-22 00:15:00,
2013-04-21 19:20:00,48.3,30.5,30.40,SE,131,8.0,16.0,50,0.00,,,0.00,11,HR-IXP-WINDi_r2_v1.2,2013-04-22 00:20:00,
2013-04-21 19:26:00,48.0,30.7,30.40,ESE,119,5.0,12.0,51,0.00,,,0.00,7,HR-IXP-WINDi_r2_v1.2,2013-04-22 00:26:00,
2013-04-21 19:31:00,47.7,30.9,30.40,SSE,153,7.0,12.0,52,0.00,,,0.00,0,HR-IXP-WINDi_r2_v1.2,2013-04-22 00:31:00,
2013-04-21 19:36:00,47.4,30.6,30.40,ESE,104,11.0,12.0,52,0.00,,,0.00,0,HR-IXP-WINDi_r2_v1.2,2013-04-22 00:36:00,
2013-04-21 19:41:00,47.2,30.9,30.40,SSE,157,4.0,12.0,53,0.00,,,0.00,0,HR-IXP-WINDi_r2_v1.2,2013-04-22 00:41:00,
2013-04-21 19:46:00,46.9,31.1,30.40,SE,129,9.0,12.0,54,0.00,,,0.00,0,HR-IXP-WINDi_r2_v1.2,2013-04-22 00:46:00,
2013-04-21 19:51:00,46.7,30.9,30.40,South,176,2.0,12.0,54,0.00,,,0.00,0,HR-IXP-WINDi_r2_v1.2,2013-04-22 00:51:00,
2013-04-21 19:56:00,46.5,30.7,30.40,SE,139,5.0,12.0,54,0.00,,,0.00,0,HR-IXP-WINDi_r2_v1.2,2013-04-22 00:56:00,
2013-04-21 20:01:00,46.3,31.0,30.41,SSE,150,2.0,12.0,55,0.00,,,0.00,0,HR-IXP-WINDi_r2_v1.2,2013-04-22 01:01:00,
2013-04-21 20:07:00,46.1,30.8,30.41,ESE,117,5.0,12.0,55,0.00,,,0.00,0,HR-IXP-WINDi_r2_v1.2,2013-04-22 01:07:00,
2013-04-21 20:12:00,46.0,31.2,30.41,SSE,153,7.0,11.0,56,0.00,,,0.00,0,HR-IXP-WINDi_r2_v1.2,2013-04-22 01:12:00,
2013-04-21 20:17:00,45.8,31.0,30.41,SE,131,4.0,14.0,56,0.00,,,0.00,0,HR-IXP-WINDi_r2_v1.2,2013-04-22 01:17:00,
2013-04-21 20:22:00,45.7,31.3,30.41,SE,127,2.0,14.0,57,0.00,,,0.00,0,HR-IXP-WINDi_r2_v1.2,2013-04-22 01:22:00,
2013-04-21 20:27:00,45.6,31.2,30.41,SSE,157,2.0,9.0,57,0.00,,,0.00,0,HR-IXP-WINDi_r2_v1.2,2013-04-22 01:27:00,
2013-04-21 20:33:00,45.4,31.5,30.41,SSE,148,0.0,9.0,58,0.00,,,0.00,0,HR-IXP-WINDi_r2_v1.2,2013-04-22 01:33:00,
2013-04-21 20:38:00,45.2,31.7,30.41,SE,126,5.0,9.0,59,0.00,,,0.00,0,HR-IXP-WINDi_r2_v1.2,2013-04-22 01:38:00,
2013-04-21 20:43:00,45.1,31.6,30.41,ESE,110,5.0,9.0,59,0.00,,,0.00,0,HR-IXP-WINDi_r2_v1.2,2013-04-22 01:43:00,
2013-04-21 20:48:00,44.9,31.8,30.41,SE,125,0.0,8.0,60,0.00,,,0.00,0,HR-IXP-WINDi_r2_v1.2,2013-04-22 01:48:00,
2013-04-21 20:53:00,44.8,32.1,30.41,SE,127,2.0,8.0,61,0.00,,,0.00,0,HR-IXP-WINDi_r2_v1.2,2013-04-22 01:53:00,
2013-04-21 20:58:00,44.6,32.0,30.41,SE,136,4.0,8.0,61,0.00,,,0.00,0,HR-IXP-WINDi_r2_v1.2,2013-04-22 01:58:00,
2013-04-21 21:03:00,44.5,32.3,30.41,SE,139,1.0,9.0,62,0.00,,,0.00,0,HR-IXP-WINDi_r2_v1.2,2013-04-22 02:03:00,
2013-04-21 21:08:00,44.3,32.1,30.41,SSE,148,5.0,9.0,62,0.00,,,0.00,0,HR-IXP-WINDi_r2_v1.2,2013-04-22 02:08:00,
2013-04-21 21:14:00,44.2,32.0,30.41,SSE,148,5.0,8.0,62,0.00,,,0.00,0,HR-IXP-WINDi_r2_v1.2,2013-04-22 02:14:00,
2013-04-21 21:19:00,44.1,32.3,30.41,ESE,112,5.0,9.0,63,0.00,,,0.00,0,HR-IXP-WINDi_r2_v1.2,2013-04-22 02:19:00,
2013-04-21 21:24:00,44.0,32.2,30.40,ESE,115,1.0,9.0,63,0.00,,,0.00,0,HR-IXP-WINDi_r2_v1.2,2013-04-22 02:24:00,
2013-04-21 21:29:00,43.9,32.5,30.40,ESE,119,6.0,8.0,64,0.00,,,0.00,0,HR-IXP-WINDi_r2_v1.2,2013-04-22 02:29:00,
2013-04-21 21:34:00,43.7,32.3,30.40,ESE,114,4.0,9.0,64,0.00,,,0.00,0,HR-IXP-WINDi_r2_v1.2,2013-04-22 02:34:00,
2013-04-21 21:39:00,43.6,32.2,30.41,ESE,105,2.0,9.0,64,0.00,,,0.00,0,HR-IXP-WINDi_r2_v1.2,2013-04-22 02:39:00,
2013-04-21 21:44:00,43.5,32.1,30.40,SE,133,2.0,7.0,64,0.00,,,0.00,0,HR-IXP-WINDi_r2_v1.2,2013-04-22 02:44:00,
2013-04-21 21:50:00,43.4,32.4,30.40,East,94,4.0,8.0,65,0.00,,,0.00,0,HR-IXP-WINDi_r2_v1.2,2013-04-22 02:50:00,
2013-04-21 21:55:00,43.3,32.3,30.40,SE,132,4.0,8.0,65,0.00,,,0.00,0,HR-IXP-WINDi_r2_v1.2,2013-04-22 02:55:00,
2013-04-21 22:01:00,43.2,32.6,30.40,ESE,121,4.0,8.0,66,0.00,,,0.00,0,HR-IXP-WINDi_r2_v1.2,2013-04-22 03:01:00,
2013-04-21 22:06:00,43.1,32.5,30.40,ESE,123,2.0,7.0,66,0.00,,,0.00,0,HR-IXP-WINDi_r2_v1.2,2013-04-22 03:06:00,
2013-04-21 22:11:00,42.9,32.7,30.40,SE,140,2.0,6.0,67,0.00,,,0.00,0,HR-IXP-WINDi_r2_v1.2,2013-04-22 03:11:00,
2013-04-21 22:16:00,42.8,32.6,30.40,ESE,103,1.0,7.0,67,0.00,,,0.00,0,HR-IXP-WINDi_r2_v1.2,2013-04-22 03:16:00,
2013-04-21 22:22:00,42.6,32.4,30.40,SSE,152,0.0,7.0,67,0.00,,,0.00,0,HR-IXP-WINDi_r2_v1.2,2013-04-22 03:22:00,
2013-04-21 22:27:00,42.5,32.7,30.40,SE,136,0.0,6.0,68,0.00,,,0.00,0,HR-IXP-WINDi_r2_v1.2,2013-04-22 03:27:00,
2013-04-21 22:32:00,42.4,32.6,30.40,ESE,119,4.0,6.0,68,0.00,,,0.00,0,HR-IXP-WINDi_r2_v1.2,2013-04-22 03:32:00,
2013-04-21 22:37:00,42.3,32.5,30.40,ESE,117,4.0,6.0,68,0.00,,,0.00,0,HR-IXP-WINDi_r2_v1.2,2013-04-22 03:37:00,
2013-04-21 22:42:00,42.2,32.7,30.40,ESE,117,2.0,8.0,69,0.00,,,0.00,0,HR-IXP-WINDi_r2_v1.2,2013-04-22 03:42:00,
2013-04-21 22:47:00,42.2,32.7,30.40,ESE,116,1.0,8.0,69,0.00,,,0.00,0,HR-IXP-WINDi_r2_v1.2,2013-04-22 03:47:00,
2013-04-21 22:52:00,42.2,33.1,30.39,SE,142,2.0,8.0,70,0.00,,,0.00,0,HR-IXP-WINDi_r2_v1.2,2013-04-22 03:52:00,
2013-04-21 22:57:00,42.2,32.7,30.39,ESE,104,2.0,9.0,69,0.00,,,0.00,0,HR-IXP-WINDi_r2_v1.2,2013-04-22 03:57:00,
2013-04-21 23:01:00,42.1,32.6,30.39,ESE,111,0.0,9.0,69,0.00,,,0.00,0,HR-IXP-WINDi_r2_v1.2,2013-04-22 04:01:00,
2013-04-21 23:06:00,42.1,32.6,30.39,SE,124,0.0,9.0,69,0.00,,,0.00,0,HR-IXP-WINDi_r2_v1.2,2013-04-22 04:06:00,
2013-04-21 23:11:00,42.1,33.0,30.39,ESE,117,1.0,9.0,70,0.00,,,0.00,0,HR-IXP-WINDi_r2_v1.2,2013-04-22 04:11:00,
2013-04-21 23:16:00,42.0,32.9,30.38,ESE,112,4.0,8.0,70,0.00,,,0.00,0,HR-IXP-WINDi_r2_v1.2,2013-04-22 04:16:00,
2013-04-21 23:22:00,41.8,33.1,30.38,East,84,2.0,9.0,71,0.00,,,0.00,0,HR-IXP-WINDi_r2_v1.2,2013-04-22 04:22:00,
2013-04-21 23:27:00,41.7,33.0,30.38,SE,138,2.0,9.0,71,0.00,,,0.00,0,HR-IXP-WINDi_r2_v1.2,2013-04-22 04:27:00,
2013-04-21 23:32:00,41.6,32.9,30.38,SE,145,1.0,8.0,71,0.00,,,0.00,0,HR-IXP-WINDi_r2_v1.2,2013-04-22 04:32:00,
2013-04-21 23:37:00,41.5,33.1,30.38,SE,143,4.0,8.0,72,0.00,,,0.00,0,HR-IXP-WINDi_r2_v1.2,2013-04-22 04:37:00,
2013-04-21 23:42:00,41.4,33.0,30.38,ESE,109,5.0,8.0,72,0.00,,,0.00,0,HR-IXP-WINDi_r2_v1.2,2013-04-22 04:42:00,
2013-04-21 23:47:00,41.4,33.0,30.39,East,94,2.0,8.0,72,0.00,,,0.00,0,HR-IXP-WINDi_r2_v1.2,2013-04-22 04:47:00,
2013-04-21 23:52:00,41.3,32.9,30.38,ESE,112,7.0,8.0,72,0.00,,,0.00,0,HR-IXP-WINDi_r2_v1.2,2013-04-22 04:52:00,
2013-04-21 23:57:00,41.2,32.8,30.38,ESE,117,1.0,8.0,72,0.00,,,0.00,0,HR-IXP-WINDi_r2_v1.2,2013-04-22 04:57:00,